User: anonymous   Login
Location: Mentone
(34.5413°N, 85.5351°W)
Time: 23:52:29
(UTC-05:00)
Language:

AO-Echo - Orbit

View from above orbital plane
View from above orbital plane
View from above satellite
View from above satellite

Ground track
Ground track

The orbit data is extracted from the following two-line orbital elements,

1 28375U 04025K   18116.54440454 +.00000012 +00000-0 +16630-4 0  9996
2 28375 098.3831 048.8896 0083643 059.2151 301.7240 14.41883586726919
Epoch (UTC): 26 April 2018 13:03:56
Eccentricity: 0.0083643
inclination: 98.3831°
perigee height: 692 km
apogee height: 812 km
right ascension of ascending node: 48.8896°
argument of perigee: 59.2151°
revolutions per day: 14.41883586
mean anomaly at epoch: 301.7240°
orbit number at epoch: 72691

The dashed part of the orbit path shows where the satellite is in the earth's shadow,  

DLR